Flag for U.S.A. Weather past 2 weeks in Roanoke, Virginia, U.S.A.

Now
41 °F

Sunny.


Feels Like: 36 °F
Forecast: 33 / 55 °F
Wind: 8 mph from Northeast

Location: Roanoke Regional Airport


UV Index: 5 (Moderate)

Visibility: 10 mi


Pressure: 30.44 "Hg

Humidity: 38%

Dew point: 17 °F

Location of RoanokeLocation

Historic Weather in Roanoke

°F

Roanoke temperature yesterday

Maximum temperature yesterday: 63 °F (at 9:54 AM)
Minimum temperature yesterday: 34 °F (at 10:54 PM)
Average temperature yesterday: 51 °F

Past Weeks' High & Low Weather Summary

 TemperatureHumidityPressure
High83 °F (Apr 2, 4:54 PM)100% (Apr 8, 2:54 AM)30.45 "Hg (Apr 8, 2:54 AM)
Low28 °F (Apr 16, 5:54 AM)16% (Apr 1, 6:54 PM)29.57 "Hg (Apr 8, 4:00 AM)
Average58 °F54%29.98 "Hg
* Reported Apr 1 11:54 AM — Apr 16 11:54 AM, Roanoke, Weather by CustomWeather, © 2014

Note: Actual official high and low records may vary slightly from our data, if they occured in-between our weather recording intervals... More about our weather records

Advertising

Historic Weather Conditions — Data for Previous 24 hours

 ConditionsComfort  
Time TempWeatherWind HumidityBarometerVisibility
11:54 AM
Apr 16
41 °FSunny.8 mph38%30.44 "Hg10 mi
10:54 AM38 °FSunny.7 mph41%30.45 "Hg10 mi
9:54 AM37 °FSunny.12 mph42%30.42 "Hg10 mi
8:54 AM34 °FPassing clouds.13 mph46%30.41 "Hg10 mi
7:54 AM32 °FPassing clouds.6 mph50%30.37 "Hg10 mi
6:54 AM28 °FPassing clouds.10 mph61%30.34 "Hg10 mi
5:54 AM28 °FClear.13 mph61%30.29 "Hg10 mi
4:54 AM30 °FClear.13 mph54%30.25 "Hg10 mi
3:54 AM29 °FClear.9 mph58%30.22 "Hg10 mi
2:54 AM31 °FClear.10 mph54%30.19 "Hg10 mi
1:54 AM32 °FPassing clouds.8 mph56%30.16 "Hg10 mi
12:54 AM32 °FPassing clouds.16 mph56%30.12 "Hg10 mi
11:54 PM
Apr 15
34 °FPassing clouds.18 mph52%30.09 "Hg10 mi
10:54 PM34 °FPassing clouds.22 mph54%30.06 "Hg10 mi
9:54 PM35 °FPassing clouds.15 mph52%30.02 "Hg10 mi
8:54 PM36 °FPassing clouds.14 mph59%29.97 "Hg10 mi
6:54 PM41 °FPartly sunny.14 mph60%29.86 "Hg10 mi
5:54 PM44 °FBroken clouds.17 mph63%29.82 "Hg10 mi
4:54 PM41 °FLight rain. Mostly cloudy.7 mph74%29.81 "Hg10 mi
3:54 PM43 °FLight rain. Cloudy.15 mph74%29.79 "Hg9 mi
2:54 PM45 °FRain. More clouds than sun.14 mph71%29.77 "Hg7 mi
1:54 PM48 °FOvercast.14 mph68%29.75 "Hg10 mi
Weather by CustomWeather, © 2014

See weather overview